Dewpoint
34 30 29 31 39 41 42 43 45 45 47 44 45 45 42 44 47 47 48 49 49 49 45 42 40 40 40 41 40 38 38 33
35 32 31 31 39 41 43 43 46 46 45 43 42 42 42 45 46 48 49 49 47 44 42 40 39 39 40 39 38 36 34 33
35 33 32 33 39 41 42 42 45 45 44 43 42 43 42 46 49 49 48 46 43 39 40 39 39 38 39 39 37 35 32 33
35 33 33 34 39 40 40 40 44 44 42 42 40 43 44 45 48 48 45 42 40 39 38 39 39 38 38 38 37 36 33 32
34 33 34 36 37 39 40 39 43 43 43 39 38 38 39 42 47 46 44 41 38 37 38 38 38 39 37 35 35 36 35 32
32 33 34 36 37 39 40 40 41 42 42 42 40 39 44 45 46 45 44 41 37 35 36 38 38 37 36 35 34 34 34 34
32 34 34 35 40 41 40 40 38 41 43 41 44 40 40 44 45 45 44 42 39 36 35 36 37 35 34 33 34 32 33 34
31 32 32 33 38 41 41 40 38 40 42 44 43 42 42 43 45 45 43 39 38 36 35 35 34 34 34 33 32 31 33 32
31 32 33 33 38 41 41 40 39 40 42 43 44 43 44 45 45 44 40 37 37 34 34 34 34 34 33 33 32 32 30 31
31 32 34 34 37 41 42 41 40 39 42 43 44 45 45 45 44 41 38 35 32 33 33 33 32 32 32 33 32 32 31 31
31 31 33 35 36 41 45 43 40 40 44 44 45 46 45 43 41 38 35 35 33 33 32 32 31 31 31 31 31 31 31 31
36 36 36 36 38 42 45 43 41 43 45 47 46 43 41 39 37 34 35 34 32 31 31 31 30 30 31 30 30 27 28 28
37 37 37 36 37 39 43 44 46 46 45 45 43 41 38 35 34 33 34 32 33 32 32 31 29 28 28 27 26 27 26 25
38 39 38 38 39 41 44 44 43 42 42 41 40 36 34 34 33 33 33 33 32 30 29 28 26 26 23 24 22 22 21 21
38 39 40 40 41 42 41 40 40 39 37 35 34 32 31 32 33 32 30 28 27 26 26 25 25 23 21 18 17 19 19 17
37 38 39 38 38 37 36 35 33 32 31 30 30 30 29 28 27 25 25 25 25 25 24 23 22 19 18 19 17 16 16 15
35 34 34 33 32 31 30 30 29 28 26 24 24 22 19 20 21 21 23 23 23 23 21 21 20 15 22 23 18 16 16 15
32 31 30 30 30 30 28 26 25 23 21 18 16 17 17 18 18 19 20 21 20 20 20 19 19 21 22 22 22 17 17 16
30 30 30 29 27 26 25 23 22 18 16 15 15 16 15 16 16 16 19 18 18 18 17 17 16 21 23 21 20 17 15 14
Wind_Speed
16 17 15 17 21 17 14 14 13 12 7 9 10 6 6 6 12 9 7 8 10 14 12 13 14 12 13 13 15 16 14 16
16 17 14 15 20 18 15 16 15 11 10 11 11 10 7 9 11 8 10 10 10 13 12 12 13 11 13 13 12 16 14 15
21 20 16 13 20 18 16 16 17 13 12 11 11 11 8 11 12 9 9 10 10 11 11 11 11 11 12 12 13 11 13 16
23 24 21 17 20 18 18 16 18 14 12 8 3 8 10 8 11 10 7 8 8 9 10 9 10 9 11 12 13 14 12 14
22 24 23 21 16 18 16 15 17 16 13 12 12 11 11 12 11 13 9 6 7 9 8 8 8 9 11 11 12 12 11 12
20 24 25 22 18 19 16 16 17 17 15 10 13 7 9 13 13 10 9 6 5 5 5 7 6 8 9 10 11 12 10 10
17 23 24 22 20 19 18 15 16 15 15 12 8 15 9 13 13 9 10 9 9 6 4 6 6 8 8 8 9 12 10 10
12 19 21 20 22 19 18 15 15 16 15 13 11 6 5 5 11 9 7 6 5 9 6 7 6 6 7 7 8 11 9 7
2 10 18 20 22 23 19 16 14 14 14 10 9 4 4 3 4 5 5 8 12 8 6 6 6 7 7 7 6 9 11 9
6 2 10 17 20 23 22 16 15 13 14 10 8 5 2 4 14 10 6 8 4 9 5 6 7 8 10 10 9 10 11 11
12 10 9 5 15 21 22 18 14 12 15 10 7 6 9 13 9 8 9 9 9 8 7 8 9 10 11 11 11 12 14 14
13 15 15 16 14 20 22 17 10 17 15 14 14 14 13 9 10 9 9 8 9 8 9 10 12 13 14 14 15 16 16 18
11 11 11 11 11 13 17 13 21 20 19 19 16 13 11 8 8 9 9 7 7 10 12 14 15 16 16 16 16 18 20 21
10 11 12 12 14 19 25 23 22 20 19 17 14 11 9 11 10 10 11 12 13 14 14 14 15 15 16 15 17 18 19 20
12 13 14 14 15 22 21 19 18 17 17 17 15 12 10 11 12 13 12 12 12 13 13 14 14 16 14 13 14 14 16 17
14 15 16 17 18 18 18 17 17 18 16 14 11 10 11 11 10 10 11 12 12 12 14 14 14 15 11 10 12 14 16 19
16 17 18 18 17 17 17 17 17 16 14 12 11 9 10 10 10 10 12 13 13 13 13 13 13 14 8 9 11 13 16 17
17 18 17 16 16 16 15 15 14 12 11 11 11 10 10 11 11 12 13 12 13 13 12 12 13 12 11 12 16 13 16 16
18 17 17 17 16 15 14 14 12 12 11 10 10 10 10 11 12 13 12 12 12 12 12 12 13 11 16 18 20 16 16 17
Wind_Direction
171 165 166 161 148 157 159 153 149 153 134 138 169 191 140 141 85 89 36 56 40 14 57 45 8 38 29 13 9 350 348 354
175 163 168 165 150 158 167 166 157 155 169 194 169 171 157 110 100 96 69 45 43 35 25 40 14 27 35 11 8 349 352 348
170 161 173 183 160 166 175 179 163 184 192 205 176 156 170 113 90 78 76 66 39 58 32 37 19 8 30 7 20 354 352 346
172 168 177 178 165 176 180 184 168 190 200 202 167 119 106 124 140 139 88 79 71 51 45 36 18 6 26 6 24 1 353 345
179 172 172 172 180 175 183 184 170 187 220 186 186 173 191 197 140 116 103 79 62 59 47 33 25 5 30 4 11 354 352 345
181 173 168 171 181 173 187 182 178 187 204 225 180 231 147 122 111 121 111 113 86 84 61 30 22 25 19 9 6 342 353 339
181 168 165 172 174 173 179 192 190 186 184 212 247 193 246 134 134 158 180 164 165 134 48 50 24 25 10 6 357 343 337 339
180 159 161 169 173 171 172 198 196 187 181 185 226 225 194 149 155 176 195 189 180 94 59 31 11 6 358 1 349 330 319 342
132 163 166 173 171 170 175 187 213 181 176 178 196 194 203 188 173 50 62 48 85 83 51 12 357 347 334 328 314 300 320 305
42 205 188 180 172 170 170 181 196 190 165 164 176 176 273 89 76 64 61 60 38 62 37 354 341 332 321 311 297 291 281 285
37 26 8 233 179 167 160 174 186 196 142 146 145 108 70 68 70 67 51 41 36 14 359 342 323 313 314 317 320 320 311 291
33 26 12 3 6 149 154 160 192 124 114 91 81 73 68 59 61 56 54 33 23 348 323 320 329 336 346 342 335 321 322 325
54 46 30 24 28 65 136 128 85 85 85 82 76 79 73 67 53 47 42 17 346 348 351 352 350 348 347 341 352 10 2 350
72 67 60 55 55 76 74 79 85 86 86 89 82 76 68 55 43 30 23 15 11 3 356 351 350 346 340 25 9 3 353 348
88 80 79 74 74 80 84 88 91 95 89 79 67 57 54 46 41 26 18 12 2 358 356 351 347 347 34 15 3 360 348 336
97 94 90 87 83 86 86 85 82 83 86 83 75 54 60 42 30 16 17 15 1 352 353 352 356 343 37 23 16 358 340 328
109 108 106 101 99 97 88 81 79 81 81 76 60 48 42 33 20 7 21 7 355 356 354 353 353 345 61 50 21 352 335 325
118 110 106 105 102 97 97 92 87 85 81 69 53 36 28 23 5 18 9 1 356 351 352 353 351 19 60 36 359 343 334 330
119 114 107 101 100 98 94 90 84 76 66 54 44 28 17 12 14 9 1 358 352 347 350 357 355 52 49 28 1 348 340 340